Location: ??????
(42.0089°N, 44.3281°E)
Time: 17:55:21
(UTC+00:00)

Okean 1-7 Rocket - Pass Details

Date: 05 June 2022
Orbit: 616 x 648 km, 82.5° (Epoch: 01 July)

Event Time Altitude Azimuth Distance (km) Brightness Sun altitude
Exits shadow 22:39:27 16° 129° (SE) 1,603 5.5 -21.5°
Maximum altitude 22:41:39 24° 88° (E) 1,292 5.4 -21.3°
Drops below altitude 10° 22:45:10 10° 35° (NE) 1,986 7.3 -21.1°
Sets 22:47:43 0° 22° (NNE) 2,897 8.6 -20.8°
